[[{"header":{"parameterUnit":"m.s-1","parameterCategory":1,"la1":30.2991,"la2":30.254,"lo1":-89.0895,"lo2":-89.0444,"dy":0.0017,"dx":0.0017,"nx":28,"ny":28,"refTime":"2025-06-10T03:00:00:Z","depth":0,"parameterNumber":2,"parameterNumberName":"U-component_of_WINDS"},"data":[0,0,0,0,0,0,0,0,0,0,0,0,0,0,0,0,0,0,0,0,0,0,0,0,0,0,0,0,0,0,0,0,0,0,0,0,0,0,0,0,0,0,0,0,0,0,0,0,0,0,0,0,0,0,0,0,0,0,1.2223,1.2224,0,1.2338,1.2339,1.2341,1.2352,1.235,1.2349,1.2348,1.2467,1.2471,1.2475,0,0,0,0,0,0,0,0,0,0,0,0,0,1.2011,1.2015,1.2222,1.2224,1.2225,1.2338,1.234,1.2341,1.2352,1.235,1.2349,1.2348,1.2465,1.247,1.2475,0,0,0,0,0,0,0,0,0,0,0,0,0,1.2112,1.2016,1.2222,1.2244,1.2247,1.2338,1.234,1.2342,1.2352,1.235,1.2349,1.2347,1.2464,1.247,1.2476,1.2552,0,0,1.2496,1.2499,0,0,0,0,0,0,0,0,1.2107,1.212,1.224,1.2243,1.2247,1.2329,1.2308,1.2412,1.2353,1.2312,1.2348,1.2346,1.2422,1.2432,1.2458,1.2558,1.2563,1.2496,1.25,1.2503,1.2505,0,0,0,0,0,0,0,1.21,1.2115,1.2268,1.2241,1.2246,1.2248,1.2261,1.2328,1.2376,1.2316,1.2317,1.233,1.2424,1.2451,1.246,1.2565,1.2496,1.2502,1.2506,1.2508,1.2733,1.2735,0,0,0,0,0,0,1.2088,1.2109,1.2265,1.2272,1.2171,1.2254,1.2268,1.2304,1.2375,1.2385,1.2332,1.233,1.2441,1.2453,1.2465,1.2559,1.2503,1.2509,1.2513,1.2731,1.2734,1.2736,0,0,0,0,0,0,1.2084,1.2102,1.226,1.2191,1.2211,1.2259,1.23,1.2307,1.2335,1.2388,1.2396,1.2351,1.244,1.2456,1.253,1.2563,1.2512,1.2518,1.2729,1.2732,1.2735,1.2747,0,0,0,0,0,0,1.2078,1.21,1.213,1.2191,1.2215,1.2324,1.2302,1.2311,1.2346,1.2345,1.2408,1.2417,1.244,1.2521,1.2537,1.2571,1.2523,1.2726,1.273,1.2734,1.2744,1.275,1.2755,0,0,0,0,0,1.207,1.2129,1.2131,1.215,1.2253,1.2326,1.2339,1.2365,1.2349,1.2379,1.2412,1.2415,1.2557,1.2528,1.2546,1.2583,1.2724,1.2729,1.2733,1.2741,1.2749,1.2755,0,0,0,0,0,0,1.2069,1.2137,1.2141,1.2221,1.2267,1.2327,1.2366,1.2372,1.2424,1.2421,1.2451,1.2465,1.2538,1.2568,1.2535,1.266,1.2639,1.2647,1.2638,1.2646,1.2651,1.2643,1.2528,0,0,0,0,0,1.2079,1.2132,1.2188,1.2254,1.2277,1.2317,1.235,1.2366,1.2415,1.2435,1.2474,1.2522,1.2577,1.2613,1.2667,1.2748,1.2762,1.2782,1.2788,1.2792,1.2799,1.2844,1.2854,1.2751,1.2751,1.2751,0,0,1.2098,1.2142,1.2174,1.2255,1.2293,1.2348,1.2334,1.2392,1.2433,1.2444,1.2517,1.2547,1.2603,1.2681,1.2717,1.2708,1.283,1.2798,1.2801,1.2806,1.285,1.2859,1.2868,1.2755,1.2754,1.2754,0,0,1.2162,1.22,1.2259,1.2297,1.2355,1.2381,1.2395,1.2454,1.2475,1.2549,1.2558,1.2607,1.2702,1.2741,1.2773,1.2851,1.2855,1.2868,1.2898,1.2942,1.295,1.2957,1.2985,1.2994,1.2875,1.2875,1.2875,0,1.2179,1.2262,1.2288,1.2347,1.2382,1.2394,1.2454,1.2489,1.2562,1.2586,1.2574,1.2693,1.2731,1.2819,1.2838,1.2864,1.288,1.2861,1.2946,1.2954,1.2961,1.2988,1.2998,1.2876,1.2876,1.2876,1.2876,0,1.228,1.2337,1.2378,1.2447,1.2487,1.2546,1.2581,1.2618,1.2631,1.2658,1.2733,1.2779,1.2843,1.2865,1.2877,1.2954,1.2946,1.294,1.2919,1.2972,1.2997,1.3008,1.2878,1.2877,1.2877,1.2877,0,0,1.2346,1.243,1.2444,1.2476,1.254,1.2585,1.2644,1.2706,1.2738,1.2787,1.2837,1.2917,1.2912,1.2949,1.2966,1.3004,1.3063,1.2993,1.2995,1.3004,1.315,1.3154,1.3165,1.3066,1.3068,1.307,1.3145,0,1.2417,1.2523,1.2549,1.2639,1.2693,1.2705,1.2756,1.2801,1.2829,1.2878,1.2908,1.2965,1.2954,1.2976,1.3014,1.3047,1.3092,1.3042,1.3113,1.3115,1.3099,1.3179,1.3183,1.3252,1.3155,1.3157,1.3159,0,1.2514,1.2565,1.2661,1.2719,1.2742,1.2788,1.2847,1.2894,1.2945,1.2963,1.3003,1.3017,1.3079,1.3055,1.3141,1.3106,1.3136,1.3157,1.316,1.3168,1.314,1.3188,1.3275,1.3285,1.3175,1.3173,1.3172,0,1.2552,1.2646,1.2715,1.2742,1.2811,1.2843,1.2873,1.2923,1.2958,1.301,1.3033,1.3091,1.3123,1.3167,1.3196,1.3176,1.3279,1.3258,1.3295,1.3295,1.3317,1.3315,1.3409,1.3336,1.3336,1.3336,1.3336,0,1.2629,1.2687,1.2734,1.2776,1.2842,1.2871,1.2935,1.2965,1.3009,1.3058,1.3072,1.3117,1.3152,1.3203,1.3225,1.3293,1.3307,1.3323,1.3328,1.3322,1.3319,1.3342,1.3337,1.3339,1.3338,1.3338,1.3337,0,1.2683,1.2716,1.2793,1.2852,1.2868,1.2914,1.2964,1.3006,1.3034,1.3095,1.3111,1.3155,1.3215,1.3248,1.3323,1.3338,1.3414,1.3417,1.3396,1.3399,1.3435,1.3431,1.3546,1.3563,1.3479,1.348,1.3481,0,1.2729,1.2774,1.2838,1.2872,1.2902,1.2957,1.2993,1.3023,1.306,1.3122,1.3157,1.3217,1.3267,1.3363,1.3401,1.3458,1.3463,1.3499,1.3471,1.3463,1.3463,1.346,1.3464,1.3504,1.3505,1.3505,1.3506,0,1.2808,1.2822,1.2874,1.2932,1.2975,1.3023,1.3069,1.3096,1.3134,1.3175,1.3236,1.3275,1.3352,1.3412,1.3473,1.3504,1.3511,1.3515,1.3526,1.352,1.3506,1.3514,1.3409,1.3512,1.3511,1.3511,1.351,1.351,1.2859,1.29,1.2951,1.3009,1.3047,1.309,1.3132,1.3166,1.3217,1.3282,1.3297,1.3361,1.3412,1.3494,1.3527,1.3577,1.357,1.3588,1.3592,1.3596,1.3597,1.3498,1.3589,1.3589,1.3588,1.3588,1.3588,0,1.2938,1.2972,1.3024,1.3089,1.3135,1.3138,1.319,1.3227,1.3284,1.3331,1.338,1.345,1.3508,1.3551,1.3611,1.3643,1.3648,1.3658,1.3656,1.3663,1.36,1.3583,1.3653,1.3653,1.3653,1.3653,1.3653,1.3653,1.2984,1.3053,1.3074,1.3162,1.3195,1.3259,1.3288,1.3328,1.3365,1.3443,1.3492,1.3519,1.3564,1.3627,1.3681,1.3692,1.3713,1.3722,1.3734,1.3674,1.3667,1.3661,1.3645,1.3727,1.3727,1.3793,1.3793,1.3794]},{"header":{"parameterUnit":"m.s-1","parameterCategory":1,"la1":30.2991,"la2":30.254,"lo1":-89.0895,"lo2":-89.0444,"dy":0.0017,"dx":0.0017,"nx":28,"ny":28,"refTime":"2025-06-10T03:00:00:Z","depth":0,"parameterNumber":3,"parameterNumberName":"V-component_of_WINDS"},"data":[0,0,0,0,0,0,0,0,0,0,0,0,0,0,0,0,0,0,0,0,0,0,0,0,0,0,0,0,0,0,0,0,0,0,0,0,0,0,0,0,0,0,0,0,0,0,0,0,0,0,0,0,0,0,0,0,0,0,1.4739,1.4739,0,1.4753,1.4753,1.4753,1.4774,1.4774,1.4775,1.4775,1.4787,1.4787,1.4787,0,0,0,0,0,0,0,0,0,0,0,0,0,1.4728,1.4728,1.4739,1.4739,1.474,1.4753,1.4753,1.4753,1.4774,1.4774,1.4775,1.4775,1.4787,1.4787,1.4787,0,0,0,0,0,0,0,0,0,0,0,0,0,1.4736,1.4728,1.4739,1.4751,1.4753,1.4753,1.4753,1.4753,1.4774,1.4774,1.4775,1.4775,1.4787,1.4787,1.4787,1.4776,0,0,1.4787,1.4787,0,0,0,0,0,0,0,0,1.4735,1.4736,1.4749,1.4751,1.4752,1.4762,1.4753,1.4761,1.4774,1.4766,1.4775,1.4776,1.4778,1.4779,1.478,1.4776,1.4777,1.4787,1.4787,1.4787,1.4787,0,0,0,0,0,0,0,1.4735,1.4736,1.4745,1.475,1.4751,1.4755,1.4757,1.4755,1.4769,1.4766,1.4768,1.4769,1.4779,1.478,1.4781,1.4777,1.4787,1.4787,1.4787,1.4787,1.4762,1.4761,0,0,0,0,0,0,1.4733,1.4735,1.4744,1.4745,1.4745,1.4755,1.4757,1.4758,1.4769,1.4771,1.4769,1.477,1.478,1.4781,1.4781,1.4767,1.4787,1.4787,1.4787,1.4762,1.4762,1.4761,0,0,0,0,0,0,1.4733,1.4733,1.4744,1.4741,1.4742,1.4755,1.4756,1.4758,1.476,1.4771,1.4773,1.4768,1.4781,1.4781,1.4777,1.4768,1.4787,1.4787,1.4763,1.4762,1.4761,1.474,0,0,0,0,0,0,1.4732,1.4733,1.473,1.474,1.4742,1.474,1.4756,1.4758,1.476,1.4762,1.477,1.4772,1.4781,1.4776,1.4777,1.4768,1.4787,1.4764,1.4763,1.4762,1.4741,1.4738,1.4735,0,0,0,0,0,1.4732,1.4723,1.473,1.4731,1.4739,1.4739,1.474,1.4751,1.4759,1.4755,1.4762,1.4772,1.4769,1.4776,1.4776,1.4768,1.4765,1.4763,1.4762,1.4742,1.4739,1.4735,0,0,0,0,0,0,1.4712,1.4725,1.4732,1.4727,1.4732,1.4743,1.4738,1.4747,1.4749,1.4751,1.4763,1.4765,1.4758,1.4763,1.477,1.4756,1.4768,1.4767,1.4753,1.475,1.4747,1.4746,1.4787,0,0,0,0,0,1.4707,1.4707,1.4718,1.4713,1.4715,1.4726,1.4727,1.4734,1.4739,1.4741,1.4748,1.4752,1.4751,1.4751,1.4751,1.4742,1.4743,1.4736,1.4733,1.473,1.4729,1.4722,1.4718,1.4756,1.4756,1.4756,0,0,1.4696,1.4704,1.4703,1.4709,1.4713,1.4712,1.4727,1.4726,1.4724,1.4741,1.4737,1.4741,1.4746,1.4738,1.4735,1.4742,1.4718,1.4729,1.4727,1.4726,1.472,1.4716,1.4713,1.4755,1.4755,1.4756,0,0,1.4677,1.4683,1.4678,1.4682,1.4689,1.4696,1.4694,1.4703,1.4707,1.4703,1.4715,1.4713,1.4713,1.4715,1.4716,1.4695,1.4704,1.4695,1.4679,1.4672,1.4669,1.4667,1.4657,1.4654,1.4693,1.4693,1.4693,0,1.4663,1.4663,1.4675,1.4672,1.4673,1.4688,1.4682,1.4685,1.4691,1.4691,1.4698,1.4697,1.4701,1.4693,1.4688,1.4689,1.4686,1.4694,1.4669,1.4666,1.4664,1.4655,1.4652,1.4692,1.4692,1.4692,1.4692,0,1.4644,1.4643,1.4638,1.4644,1.4644,1.464,1.465,1.4649,1.4656,1.4662,1.4657,1.4662,1.4663,1.4662,1.4669,1.4654,1.4658,1.4667,1.4679,1.4659,1.4651,1.4648,1.469,1.469,1.4691,1.4691,0,0,1.4614,1.4624,1.4622,1.4624,1.4631,1.463,1.4625,1.4626,1.4624,1.4627,1.4623,1.4621,1.4629,1.463,1.4638,1.4632,1.4612,1.4641,1.4641,1.4634,1.4593,1.4586,1.4582,1.4618,1.4617,1.4617,1.4592,0,1.4595,1.4588,1.4598,1.4588,1.4586,1.4599,1.4595,1.4598,1.4603,1.4601,1.4606,1.4604,1.4615,1.4616,1.4611,1.4616,1.4604,1.4618,1.4612,1.4612,1.461,1.4578,1.4571,1.4547,1.459,1.4589,1.4589,0,1.4572,1.4573,1.4564,1.4569,1.4569,1.4565,1.4565,1.4564,1.4567,1.4571,1.4571,1.458,1.4574,1.4586,1.4577,1.4586,1.4584,1.4586,1.4586,1.4585,1.4598,1.4575,1.454,1.4536,1.4584,1.4585,1.4585,0,1.4548,1.4548,1.4542,1.4543,1.455,1.4546,1.4549,1.4552,1.4552,1.4552,1.4551,1.455,1.455,1.4548,1.4556,1.4565,1.4545,1.4559,1.4547,1.4546,1.4542,1.4542,1.4505,1.4542,1.4542,1.4543,1.4543,0,1.4526,1.4519,1.4531,1.4527,1.4519,1.4529,1.4521,1.4525,1.4527,1.4523,1.4534,1.453,1.454,1.4537,1.4542,1.4533,1.4533,1.4535,1.4536,1.4533,1.4533,1.4531,1.4533,1.4542,1.4542,1.4542,1.4542,0,1.4498,1.4506,1.45,1.4507,1.4508,1.4501,1.4507,1.4502,1.4507,1.4502,1.4501,1.4508,1.4504,1.4512,1.4509,1.4512,1.4499,1.4503,1.4498,1.4499,1.4486,1.4486,1.4446,1.444,1.4482,1.4482,1.4482,0,1.4483,1.4478,1.4483,1.4481,1.4483,1.448,1.4479,1.4489,1.4487,1.4488,1.4483,1.448,1.4478,1.4471,1.4475,1.4472,1.4476,1.4462,1.4476,1.4472,1.4474,1.4474,1.4472,1.4459,1.4459,1.4458,1.4458,0,1.4454,1.4458,1.4456,1.4455,1.4454,1.4453,1.4454,1.4451,1.4461,1.4458,1.4454,1.4452,1.4448,1.4444,1.4442,1.4444,1.4451,1.4453,1.445,1.4447,1.4443,1.4443,1.4489,1.4454,1.4455,1.4455,1.4455,1.4455,1.4431,1.4427,1.4429,1.4426,1.4427,1.4427,1.4423,1.4427,1.4423,1.4421,1.4427,1.4421,1.4421,1.4419,1.442,1.4414,1.442,1.4416,1.4415,1.4413,1.441,1.4445,1.4414,1.4414,1.4414,1.4414,1.4414,0,1.4402,1.4404,1.4401,1.4401,1.4398,1.4406,1.4406,1.4403,1.4397,1.4398,1.4395,1.4389,1.4385,1.4388,1.4384,1.4379,1.4382,1.4377,1.4377,1.4377,1.4406,1.4409,1.4375,1.4375,1.4375,1.4375,1.4375,1.4375,1.4386,1.4378,1.4381,1.4373,1.4375,1.4369,1.4368,1.4367,1.4367,1.436,1.4356,1.4358,1.4359,1.4355,1.4351,1.4352,1.4349,1.4343,1.4345,1.4372,1.4375,1.4379,1.4381,1.4342,1.4342,1.4316,1.4316,1.4316]}]]